TimeEDT,TemperatureF,Dew PointF,Humidity,Sea Level PressureIn,VisibilityMPH,Wind Direction,Wind SpeedMPH,Gust SpeedMPH,PrecipitationIn,Events,Conditions,WindDirDegrees,DateUTC
12:53 AM,42.1,39.9,92,30.40,10.0,East,4.6,-,N/A,,Clear,80,2013-04-27 04:53:00
1:43 AM,41.0,39.2,93,30.40,8.0,Calm,Calm,-,N/A,,Scattered Clouds,0,2013-04-27 05:43:00
1:51 AM,42.8,39.2,87,30.40,9.0,Calm,Calm,-,N/A,,Mostly Cloudy,0,2013-04-27 05:51:00
1:53 AM,42.1,39.9,92,30.40,8.0,Calm,Calm,-,N/A,,Mostly Cloudy,0,2013-04-27 05:53:00
2:53 AM,41.0,39.0,93,30.40,6.0,Calm,Calm,-,N/A,,Scattered Clouds,0,2013-04-27 06:53:00
3:11 AM,39.2,37.4,93,30.40,1.5,Calm,Calm,-,N/A,,Partly Cloudy,0,2013-04-27 07:11:00
3:14 AM,39.2,37.4,93,30.40,0.8,Calm,Calm,-,N/A,,Mist,0,2013-04-27 07:14:00
3:24 AM,39.2,37.4,93,30.40,1.0,Calm,Calm,-,N/A,,Clear,0,2013-04-27 07:24:00
3:33 AM,39.2,37.4,93,30.40,3.0,Calm,Calm,-,N/A,,Clear,0,2013-04-27 07:33:00
3:53 AM,39.9,37.9,93,30.40,9.0,Calm,Calm,-,N/A,,Clear,0,2013-04-27 07:53:00
4:09 AM,37.4,37.4,100,30.40,0.8,Calm,Calm,-,N/A,,Clear,0,2013-04-27 08:09:00
4:20 AM,37.4,35.6,93,30.39,3.0,Calm,Calm,-,N/A,,Clear,0,2013-04-27 08:20:00
4:53 AM,36.0,36.0,100,30.39,0.8,Calm,Calm,-,N/A,,Clear,0,2013-04-27 08:53:00
5:03 AM,37.4,35.6,93,30.39,2.0,Calm,Calm,-,N/A,,Clear,0,2013-04-27 09:03:00
5:11 AM,37.4,35.6,93,30.39,4.0,Calm,Calm,-,N/A,,Clear,0,2013-04-27 09:11:00
5:53 AM,37.9,36.0,93,30.38,4.0,Calm,Calm,-,N/A,,Clear,0,2013-04-27 09:53:00
6:05 AM,37.4,37.4,100,30.38,2.5,Calm,Calm,-,N/A,,Clear,0,2013-04-27 10:05:00
6:31 AM,37.4,37.4,100,30.39,0.8,Calm,Calm,-,N/A,,Clear,0,2013-04-27 10:31:00
6:46 AM,39.2,39.2,100,30.39,3.0,Calm,Calm,-,N/A,,Clear,0,2013-04-27 10:46:00
6:53 AM,41.0,39.9,96,30.39,6.0,Calm,Calm,-,N/A,,Clear,0,2013-04-27 10:53:00
7:53 AM,46.9,43.0,86,30.40,10.0,Calm,Calm,-,N/A,,Clear,0,2013-04-27 11:53:00
8:53 AM,50.0,39.9,68,30.40,10.0,Variable,4.6,-,N/A,,Clear,0,2013-04-27 12:53:00
9:53 AM,52.0,37.9,59,30.40,10.0,SE,8.1,-,N/A,,Clear,130,2013-04-27 13:53:00
10:53 AM,54.0,36.0,51,30.41,10.0,ESE,8.1,-,N/A,,Clear,120,2013-04-27 14:53:00
11:53 AM,55.0,34.0,45,30.40,10.0,South,9.2,-,N/A,,Clear,170,2013-04-27 15:53:00
12:53 PM,55.0,30.9,40,30.40,10.0,SSE,8.1,-,N/A,,Clear,150,2013-04-27 16:53:00
1:53 PM,53.1,30.0,41,30.38,10.0,SSE,11.5,-,N/A,,Clear,160,2013-04-27 17:53:00
2:53 PM,54.0,30.9,41,30.37,10.0,SSE,12.7,-,N/A,,Clear,150,2013-04-27 18:53:00
3:53 PM,53.1,32.0,45,30.35,10.0,South,12.7,-,N/A,,Clear,170,2013-04-27 19:53:00
4:53 PM,52.0,34.0,50,30.34,10.0,SSE,13.8,-,N/A,,Clear,160,2013-04-27 20:53:00
5:53 PM,50.0,35.1,57,30.35,10.0,SSE,9.2,-,N/A,,Clear,160,2013-04-27 21:53:00
6:53 PM,48.9,37.0,64,30.34,10.0,SSE,6.9,-,N/A,,Clear,150,2013-04-27 22:53:00
7:53 PM,46.9,37.0,68,30.33,10.0,South,4.6,-,N/A,,Clear,170,2013-04-27 23:53:00
8:53 PM,46.0,37.0,71,30.34,10.0,Calm,Calm,-,N/A,,Clear,0,2013-04-28 00:53:00
9:53 PM,45.0,37.9,76,30.35,10.0,South,3.5,-,N/A,,Clear,190,2013-04-28 01:53:00
10:53 PM,45.0,37.9,76,30.35,10.0,Calm,Calm,-,N/A,,Clear,0,2013-04-28 02:53:00
11:53 PM,41.0,37.0,86,30.35,10.0,Calm,Calm,-,N/A,,Clear,0,2013-04-28 03:53:00